Location: Dittelbrunn
(50.0738°N, 10.2196°E)
Time: 12:56:42
(UTC+00:00)

Cosmos 2227 Rocket - Pass Details

Date: 18 September 2020
Orbit: 840 x 844 km, 71.0° (Epoch: 25 October)

Event Time Altitude Azimuth Distance (km) Brightness Sun altitude
Rises 18:14:34 0° 248° (WSW) 3,391 6.4 -8.7°
Reaches altitude 10° 18:17:24 10° 261° (W) 2,460 5.9 -9.1°
Maximum altitude 18:22:06 26° 317° (NW) 1,591 4.4 -9.8°
Drops below altitude 10° 18:26:49 10° 14° (NNE) 2,469 4.7 -10.6°
Sets 18:29:41 0° 27° (NNE) 3,406 5.2 -11.0°
